Weather History for KPPQ - January, 2004

Change the Weather History Date:

Tuesday, January 13, 2004

  Actual Average (KUIN) Record (KUIN)
Temperature  
Mean Temperature 32 °F 26 °F  
Max Temperature 37 °F 34 °F 58 °F (1932)
Min Temperature 28 °F 18 °F -20 °F (1912)
Degree Days  
Heating Degree Days 32 39  
Month to date heating degree days 503  
Since 1 July heating degree days 2694  
Cooling Degree Days 0 0  
Month to date cooling degree days 0  
Year to date cooling degree days 0  
Moisture  
Dew Point 30 °F    
Average Humidity 88    
Maximum Humidity 100    
Minimum Humidity 70    
Precipitation  
Precipitation 0.00 in 0.04 in 1.73 in (1911)
Month to date precipitation 0.67  
Year to date precipitation 0.67  
Sea Level Pressure  
Sea Level Pressure 30.31 in    
Wind  
Wind Speed 6 mph (NW)    
Max Wind Speed 13 mph    
Max Gust Speed -    
Visibility 8 miles    
Events      
T = Trace of Precipitation, MM = Missing Value Source: NWS Daily Summary

Daily Weather History Graph

Daily Weather History Graph

Search for Another Location

Airport or City:

Trip Planner

Search our weather history database for the weather conditions in past years. The results will help you decide how hot, cold, wet, or windy it might be!

Date:

Astronomy

Jan. 13, 2004 Rise Set
Actual Time 7:23 AM CST 5:00 PM CST
Civil Twilight 6:53 AM CST 5:30 PM CST
Nautical Twilight 6:20 AM CST 6:03 PM CST
Astronomical Twilight 5:47 AM CST 6:36 PM CST
Moon 11:21 PM CST (1/13) 10:57 AM CST (1/13)
Length of Visible Light 10h 37m
Length of Day
9h 37m
Waning Gibbous, 66% of the Moon is Illuminated
Jan 13
Waning Gibbous
Jan 14
Last Quarter
Jan 21
New
Jan 29
First Quarter
Feb 6
Full

Hourly Weather History & Observations

Time (CST) Temp. Windchill Dew Point Humidity Pressure Visibility Wind Dir Wind Speed Gust Speed Precip Events Conditions
12:05 AM 33.8 °F 28.6 °F 32.0 °F 93% 30.25 in 10.0 mi West 5.8 mph - N/A   Clear
12:25 AM 33.8 °F 28.6 °F 32.0 °F 93% 30.24 in 10.0 mi SW 5.8 mph - N/A   Clear
12:45 AM 33.8 °F 29.6 °F 32.0 °F 93% 30.24 in 10.0 mi West 4.6 mph - N/A   Clear
1:05 AM 33.8 °F 29.6 °F 32.0 °F 93% 30.24 in 10.0 mi West 4.6 mph - N/A   Clear
1:25 AM 32.0 °F 26.4 °F 30.2 °F 93% 30.24 in 10.0 mi West 5.8 mph - N/A   Clear
1:45 AM 32.0 °F 27.5 °F 30.2 °F 93% 30.24 in 10.0 mi West 4.6 mph - N/A   Clear
2:05 AM 32.0 °F 26.4 °F 30.2 °F 93% 30.24 in 10.0 mi West 5.8 mph - N/A   Clear
2:25 AM 32.0 °F 27.5 °F 30.2 °F 93% 30.25 in 10.0 mi West 4.6 mph - N/A   Clear
2:45 AM 32.0 °F 26.4 °F 32.0 °F 100% 30.26 in 10.0 mi WNW 5.8 mph - N/A   Clear
3:05 AM 32.0 °F 26.4 °F 30.2 °F 93% 30.26 in 10.0 mi WNW 5.8 mph - N/A   Clear
3:25 AM 32.0 °F 28.7 °F 30.2 °F 93% 30.26 in 7.0 mi West 3.5 mph - N/A   Clear
3:45 AM 32.0 °F 28.7 °F 30.2 °F 93% 30.26 in 7.0 mi West 3.5 mph - N/A   Clear
4:05 AM 32.0 °F 27.5 °F 32.0 °F 100% 30.27 in 7.0 mi West 4.6 mph - N/A   Clear
4:25 AM 30.2 °F 25.4 °F 30.2 °F 100% 30.27 in 5.0 mi WNW 4.6 mph - N/A   Clear
4:45 AM 30.2 °F 25.4 °F 30.2 °F 100% 30.28 in 5.0 mi WNW 4.6 mph - N/A   Clear
5:05 AM 30.2 °F 26.7 °F 28.4 °F 93% 30.28 in 5.0 mi WNW 3.5 mph - N/A   Clear
5:45 AM 28.4 °F 23.3 °F 28.4 °F 100% 30.28 in 4.0 mi West 4.6 mph - N/A   Clear
6:05 AM 30.2 °F 25.4 °F 28.4 °F 93% 30.29 in 4.0 mi West 4.6 mph - N/A   Clear
6:25 AM 30.2 °F 25.4 °F 30.2 °F 100% 30.29 in 4.0 mi West 4.6 mph - N/A   Clear
6:45 AM 28.4 °F 22.2 °F 28.4 °F 100% 30.30 in 4.0 mi West 5.8 mph - N/A   Clear
7:05 AM 28.4 °F 23.3 °F 28.4 °F 100% 30.30 in 4.0 mi West 4.6 mph - N/A   Clear
7:25 AM 28.4 °F 22.2 °F 28.4 °F 100% 30.31 in 3.0 mi West 5.8 mph - N/A   Clear
7:45 AM 28.4 °F 23.3 °F 28.4 °F 100% 30.31 in 3.0 mi West 4.6 mph - N/A   Clear
8:05 AM 28.4 °F 23.3 °F 28.4 °F 100% 30.33 in 4.0 mi WNW 4.6 mph - N/A   Clear
8:25 AM 28.4 °F 23.3 °F 28.4 °F 100% 30.33 in 4.0 mi WNW 4.6 mph - N/A   Clear
8:45 AM 32.0 °F 27.5 °F 32.0 °F 100% 30.34 in 4.0 mi West 4.6 mph - N/A   Clear
9:05 AM 32.0 °F 25.6 °F 32.0 °F 100% 30.34 in 5.0 mi WNW 6.9 mph - N/A   Clear
9:25 AM 33.8 °F 27.7 °F 32.0 °F 93% 30.35 in 7.0 mi WNW 6.9 mph - N/A   Clear
9:45 AM 33.8 °F 26.4 °F 32.0 °F 93% 30.36 in 7.0 mi NW 9.2 mph - N/A   Clear
10:05 AM 33.8 °F 28.6 °F 32.0 °F 93% 30.37 in 10.0 mi WNW 5.8 mph - N/A   Clear
10:25 AM 35.6 °F 29.2 °F 32.0 °F 87% 30.37 in 10.0 mi NW 8.1 mph - N/A   Clear
10:45 AM 35.6 °F 28.0 °F 32.0 °F 87% 30.37 in 10.0 mi NNW 10.4 mph - N/A   Clear
11:05 AM 35.6 °F 28.6 °F 30.2 °F 81% 30.37 in 10.0 mi NW 9.2 mph - N/A   Clear
11:25 AM 35.6 °F 28.0 °F 30.2 °F 81% 30.37 in 10.0 mi NW 10.4 mph - N/A   Mostly Cloudy
11:45 AM 37.4 °F 31.4 °F 30.2 °F 75% 30.36 in 10.0 mi NNW 8.1 mph - N/A   Overcast
12:05 PM 35.6 °F 29.2 °F 28.4 °F 75% 30.35 in 10.0 mi WNW 8.1 mph - N/A   Scattered Clouds
12:25 PM 37.4 °F 30.3 °F 28.4 °F 70% 30.34 in 10.0 mi NNW 10.4 mph - N/A   Scattered Clouds
12:45 PM 37.4 °F 29.3 °F 30.2 °F 75% 30.34 in 10.0 mi NNW 12.7 mph - N/A   Mostly Cloudy
1:05 PM 37.4 °F 29.3 °F 30.2 °F 75% 30.33 in 10.0 mi North 12.7 mph - N/A   Mostly Cloudy
1:25 PM 37.4 °F 30.8 °F 28.4 °F 70% 30.33 in 10.0 mi NW 9.2 mph - N/A   Scattered Clouds
1:45 PM 37.4 °F 29.8 °F 30.2 °F 75% 30.32 in 10.0 mi North 11.5 mph - N/A   Mostly Cloudy
2:05 PM 35.6 °F 27.1 °F 28.4 °F 75% 30.32 in 10.0 mi North 12.7 mph - N/A   Scattered Clouds
2:25 PM 37.4 °F 31.4 °F 28.4 °F 70% 30.33 in 10.0 mi NW 8.1 mph - N/A   Clear
2:45 PM 37.4 °F 32.1 °F 30.2 °F 75% 30.33 in 10.0 mi North 6.9 mph - N/A   Mostly Cloudy
3:05 PM 37.4 °F 32.8 °F 28.4 °F 70% 30.32 in 10.0 mi North 5.8 mph - N/A   Overcast
3:25 PM 35.6 °F 29.2 °F 28.4 °F 75% 30.32 in 10.0 mi North 8.1 mph - N/A   Scattered Clouds
3:45 PM 35.6 °F 28.6 °F 28.4 °F 75% 30.31 in 10.0 mi NNW 9.2 mph - N/A   Clear
4:05 PM 35.6 °F 29.9 °F 28.4 °F 75% 30.31 in 10.0 mi NNW 6.9 mph - N/A   Clear
4:25 PM 35.6 °F 29.9 °F 28.4 °F 75% 30.31 in 10.0 mi NNW 6.9 mph - N/A   Clear
4:45 PM 33.8 °F 28.6 °F 28.4 °F 81% 30.32 in 10.0 mi NNW 5.8 mph - N/A   Clear
5:05 PM 32.0 °F 27.5 °F 26.6 °F 80% 30.32 in 10.0 mi North 4.6 mph - N/A   Clear
5:25 PM 32.0 °F 27.5 °F 28.4 °F 87% 30.32 in 10.0 mi North 4.6 mph - N/A   Clear
5:45 PM 33.8 °F 30.8 °F 28.4 °F 81% 30.31 in 10.0 mi North 3.5 mph - N/A   Clear
6:05 PM 32.0 °F 28.7 °F 26.6 °F 80% 30.31 in 10.0 mi NNE 3.5 mph - N/A   Clear
6:25 PM 32.0 °F - 26.6 °F 80% 30.31 in 10.0 mi Calm Calm - N/A   Clear
6:45 PM 32.0 °F - 26.6 °F 80% 30.30 in 10.0 mi Calm Calm - N/A   Clear
7:05 PM 30.2 °F - 26.6 °F 86% 30.30 in 10.0 mi Calm Calm - N/A   Clear
7:25 PM 28.4 °F - 26.6 °F 93% 30.30 in 10.0 mi Calm Calm - N/A   Clear
7:45 PM 28.4 °F - 26.6 °F 93% 30.30 in 10.0 mi Calm Calm - N/A   Clear
8:05 PM 28.4 °F - 26.6 °F 93% 30.30 in 10.0 mi Calm Calm - N/A   Clear
8:25 PM 28.4 °F - 26.6 °F 93% 30.29 in 10.0 mi Calm Calm - N/A   Clear
8:45 PM 28.4 °F - 26.6 °F 93% 30.28 in 10.0 mi Calm Calm - N/A   Clear
9:05 PM 28.4 °F - 26.6 °F 93% 30.28 in 10.0 mi Calm Calm - N/A   Clear
9:25 PM 26.6 °F - 24.8 °F 93% 30.27 in 10.0 mi Calm Calm - N/A   Clear
9:45 PM 28.4 °F - 26.6 °F 93% 30.27 in 10.0 mi Calm Calm - N/A   Clear
10:05 PM 28.4 °F - 26.6 °F 93% 30.27 in 10.0 mi Calm Calm - N/A   Clear
10:25 PM 26.6 °F - 24.8 °F 93% 30.26 in 7.0 mi Calm Calm - N/A   Clear
10:45 PM 26.6 °F - 24.8 °F 93% 30.25 in 7.0 mi Calm Calm - N/A   Clear
11:05 PM 24.8 °F - 23.0 °F 93% 30.25 in 7.0 mi Calm Calm - N/A   Clear
11:25 PM 23.0 °F - 23.0 °F 100% 30.24 in 7.0 mi Calm Calm - N/A   Clear
11:45 PM 23.0 °F 18.4 °F 23.0 °F 100% 30.23 in 7.0 mi SSE 3.5 mph - N/A   Clear